Location: C.E.K. Mees Observatory
(42.7003°N, 77.4088°W)
Time: 01:23:46
(UTC-05:00)

Tiangong 2 - Pass Details

Date: 11 October 2017
Orbit: 386 x 390 km, 42.8° (Epoch: 13 December)

Event Time Altitude Azimuth Distance (km) Brightness Sun altitude
Exits shadow 04:40:43 11° 101° (E) 1,366 4.5 -29.4°
Drops below altitude 10° 04:40:53 10° 99° (E) 1,420 4.6 -29.4°
Sets 04:43:16 0° 83° (E) 2,280 6.1 -29.0°
